www.pogodaiklimat.ru

ПОГОДА в Thargomindah Airport

  • Прогноз погоды в Thargomindah Airport
  • Монитор погоды в Thargomindah Airport
  • Климат города

АРХИВ ПОГОДЫ в Thargomindah Airport

Время (UTC), дата Ветер
(напр.,м/с)
 
Видим.   Явления Облачность Т
(С)
Тd
(С)
f
(%)
Тe
(С)
Тes
(С)
Комфортность P
(гПа)
Po
(гПа)
Тmin
(С)
Tmax
(С)
R
(мм)
S
(см)
05 13.01 СЗ 5 40 км 8/3 1500 м
[Cu med, cong Ac cast Ci]
+42.4 +37 +41 очень
жарко
1001.5 987.0
06 13.01 СЗ 6 н/о н/о +43.9 +39 +39 очень
жарко
1001.1 986.3
08 13.01 З 7 н/о н/о +41.8 +37 +37 очень
жарко
1000.6 986.1
09 13.01 СЗ 5 н/о н/о +41.5 +36 +36 очень
жарко
1001.0 986.2
11 13.01 СЗ 4 н/о н/о +39.6 +14.6 23 +40 +40 очень
душно
1001.7 987.2
12 13.01 С 4 н/о н/о +38.9 +15.3 25 +40 +40 очень
душно
1002.7 987.9
14 13.01 С 3 н/о н/о +38.3 +16.0 27 +40 +40 очень
душно
1002.1 987.6 +44.5
15 13.01 С 6 н/о н/о +37.7 +16.6 29 +40 +40 очень
душно
1002.0 987.2
17 13.01 СЗ 8 н/о н/о +34.6 +18.2 38 +39 +39 очень
душно
1001.6 987.1
18 13.01 З 6 н/о н/о +33.4 +19.8 45 +39 +39 очень
душно
1002.9 988.1
20 13.01 З 4 н/о н/о +32.4 +19.3 46 +38 +38 очень
душно
1003.9 989.4
21 13.01 СЗ 5 н/о н/о +33.1 +19.6 45 +39 +39 очень
душно
1004.7 989.9
23 13.01 ЮВ 6 н/о н/о +36.5 +14.5 27 +38 +38 очень
душно
1005.3 990.7
00 14.01 В 5 н/о н/о +37.7 +15.5 27 +39 +39 очень
душно
1005.7 990.9
02 14.01 Ю 3 н/о н/о +38.7 +15.7 26 +40 +40 очень
душно
1005.4 990.8 +32.5
03 14.01 Ю 4 н/о н/о +39.5 +15.9 25 +34 +34 очень
жарко
1004.7 989.9
05 14.01 Ю 11 н/о н/о +37.8 +17.7 31 +41 +41 опасность
перегрева
1004.2 989.7
06 14.01 Ю 10 н/о н/о +36.0 +17.2 33 +39 +39 очень
душно
1004.7 989.9
08 14.01 Ю 8 н/о н/о +34.8 +16.1 33 +37 +37 очень
душно
1004.8 990.2
09 14.01 Ю 7 н/о н/о +34.1 +16.0 34 +37 +37 очень
душно
1006.1 991.3
11 14.01 ЮВ 6 н/о н/о +34.4 +13.8 29 +35 +35 очень
жарко
1007.4 992.8
12 14.01 Ю 6 н/о н/о +33.4 +7.4 20 +32 +32 жарко 1008.7 993.8
14 14.01 ЮВ 6 н/о н/о +32.1 +1.3 14 +29 +29 жарко 1008.7 994.1 +42.4
15 14.01 Ю 7 н/о н/о +30.5 +1.9 16 +28 +28 жарко 1008.9 994.0
17 14.01 ЮВ 7 н/о н/о +28.1 +3.7 21 +27 +27 жарко 1008.6 994.0
18 14.01 ЮВ 7 н/о н/о +26.9 +4.6 24 +26 +26 жарко 1009.1 994.2
20 14.01 ЮВ 6 н/о н/о +25.1 +5.3 28 +25 +25 комфорт 1010.0 995.4
21 14.01 ЮВ 7 н/о н/о +25.9 +4.9 26 +25 +25 комфорт 1011.1 996.2
23 14.01 ЮВ 6 н/о н/о +29.0 +5.1 22 +28 +28 жарко 1011.1 996.5
00 15.01 ЮВ 6 н/о н/о +30.7 +5.2 20 +29 +29 жарко 1011.1 996.2
02 15.01 ЮВ 4 н/о н/о +34.5 +5.0 16 +32 +32 жарко 1010.2 995.6 +25.2
03 15.01 В 4 н/о н/о +34.9 +4.4 15 +32 +32 жарко 1009.8 994.9
05 15.01 Ю 5 н/о н/о +37.1 +1.8 11 +34 +34 очень
жарко
1008.0 993.4
06 15.01 Ю 9 н/о н/о +38.1 -0.3 9 +34 +34 очень
жарко
1007.0 992.2
08 15.01 Ю 7 н/о н/о +37.9 -3.8 7 +34 +34 очень
жарко
1005.9 991.3
09 15.01 ЮВ 6 н/о н/о +36.6 -3.0 8 +33 +33 жарко 1006.8 992.0
11 15.01 ЮВ 4 н/о н/о +33.3 -2.4 10 +30 +30 жарко 1008.1 993.5
12 15.01 ЮВ 3 н/о н/о +31.5 -2.5 11 +28 +28 жарко 1009.1 994.2
14 15.01 ЮВ 3 н/о н/о +28.7 -2.4 13 +26 +26 жарко 1008.5 993.9 +39.3
15 15.01 Ю 3 н/о н/о +27.0 -2.7 14 +24 +24 комфорт 1008.6 993.7
17 15.01 Ю 4 н/о н/о +26.1 -2.5 15 +24 +24 комфорт 1007.6 993.0
18 15.01 ЮВ 5 н/о н/о +26.2 -1.6 16 +24 +24 комфорт 1008.0 993.1
20 15.01 ЮВ 3 н/о н/о +24.9 -0.3 19 +23 +23 комфорт 1008.7 994.1
21 15.01 ЮВ 4 н/о н/о +27.7 -1.3 15 +25 +25 комфорт 1009.3 994.4
23 15.01 В 5 н/о н/о +32.3 +5.7 19 +30 +30 жарко 1009.4 994.8
00 16.01 В 4 н/о н/о +35.5 +8.3 19 +34 +34 очень
жарко
1009.2 994.3
02 16.01 В 4 н/о н/о +38.6 +4.1 12 +36 +36 очень
жарко
1008.0 993.4 +24.5
03 16.01 Ю 3 н/о н/о +39.8 +3.8 11 +37 +37 очень
жарко
1007.7 992.8
05 16.01 СВ 5 н/о н/о +41.0 +3.4 10 +38 +38 очень
жарко
1006.1 991.5
06 16.01 Ю 3 н/о н/о +41.6 +37 +37 очень
жарко
1005.6 990.8
08 16.01 ЮВ 3 н/о н/о +41.6 +37 +37 очень
жарко
1005.2 990.6
09 16.01 В 3 н/о н/о +40.7 +3.1 10 +37 +37 очень
жарко
1005.8 991.0
11 16.01 СВ 3 н/о н/о +36.6 +4.8 14 +34 +34 очень
жарко
1006.5 991.9
12 16.01 СВ 2 н/о н/о +34.8 +4.4 15 +32 +32 жарко 1007.2 992.3
14 16.01 С 5 н/о н/о +34.7 +16.5 34 +37 +37 очень
душно
1007.4 992.8 +42.9
15 16.01 С 5 н/о н/о +34.1 +16.5 35 +37 +37 очень
душно
1007.8 992.9

 

Местоположение метеостанции Thargomindah Airport (Квинсленд, Австралия): широта -27.98 долгота 143.81 высота над уровнем моря 132 м.

В архиве по умолчанию представлена погода в Thargomindah Airport за последнюю неделю. Архивные данные за месяц целиком и за предыдущие месяцы, начиная с января 2011 года, Вы можете получить, выбрав интересующий диапазон дат из раскрывающегося списка и нажав кнопку "Ввод!".

Внимание! Время в таблицах - всемирное. Для получения местного времени необходимо прибавить поправку, которая в Thargomindah Airport равна 10 ч.

Ветер - указаны скорость ветра в м/с - средняя за 10 мин, порывы в срок и между сроками (в фигурных скобках) и направление, откуда дует ветер: С - северный, СВ - северо-восточный, В - восточный, ЮВ - юго-восточный, Ю - южный, ЮЗ - юго-западный, З - западный, СЗ - северо-западный.
Видимость - горизонтальная дальность видимости в метрах или километрах. При видимости от 1 до 10 км при отсутствии осадков обычно наблюдается дымка, при ухудшении видимости до 1 км и менее - туман. В сухую погоду видимость может ухудшаться дымом, пылью или мглою.
Явления - указаны атмосферные явления, наблюдавшиеся в срок или в последний час перед сроком; фигурными скобками обозначены явления, наблюдавшиеся между сроками (за 1-3 часа до срока); квадратными скобками обозначены град или гололедные отложения с указанием их диаметра в мм.
Облачность - указаны через наклонную черту общая и нижняя облачность в баллах и высота нижней границы облаков в метрах; квадратными скобками обозначены формы облаков: Ci - перистые, Cs - перисто-слоистые, Cc - перисто-кучевые, Ac - высококучевые, As - высокослоистые, Sc - слоисто-кучевые, Ns - слоисто-дождевые, Cu - кучевые, Cb - кучево-дождевые. Подробнее классификацию облаков см. в Атласе облаков (PDF).
T - Температура воздуха - температура, измеренная на высоте 2 м над землей.
Td - Температура точки росы - температура, при понижении до которой содержащийся в воздухе водяной пар достигнет насыщения.
f - Относительная влажность воздуха - влажноcть воздуха, измеренная на высоте 2 м над землей.
Te - Эффективная температура - температура, которую ощущает одетый по сезону человек в тени. Характеристика душности погоды. При расчете учитывается влияние влажности воздуха и скорости ветра на теплоощущения человека.
Tes - Эффективная температура на солнце - температура, которую ощущает человек, с поправкой на солнечный нагрев. Характеристика знойности погоды. Зависит от высоты солнца над горизонтом, облачности и скорости ветра. Ночью, в пасмурную погоду, а также при ветре 12 м/с и более поправка равна нулю.
P - Атмосферное давление - приведенное к уровню моря атмосферное давление.
Po - Атмосферное давление - измеренное на уровне метеостанции атмосферное давление.
Tmin - Минимальная температура - минимум температуры воздуха на высоте 2 м над землей.
Tmax - Максимальная температура - максимум температуры воздуха на высоте 2 м над землей.
R - Количество осадков - Количество выпавших осадков, мм. При наведении курсора мыши на число - период времени, за который выпало указанное количество осадков.
S - Снежный покров - Высота снежного покрова, см. При наведении курсора мыши на число - состояние снежного покрова и степень покрытия местности в баллах.